Regional Weather Roundup
Issued by NWS

Home | Current Version | Previous Version | Graphics & Text | Print | Product List | Glossary Off
Versions: 1 2 3 4 5 6 7 8 9 10 11 12 13 14 15 16 17 18 19 20 21 22 23 24 25 26 27 28 29 30 31 32 33 34 35 36 37 38 39 40 41 42 43 44 45 46 47 48 49 50

000
ASUS43 KFSD 272002
RWRSD

WEATHER ROUNDUP FOR SOUTH DAKOTA
NATIONAL WEATHER SERVICE SIOUX FALLS SD
200 PM CST SAT DEC 27 2014

NOTE: "FAIR" INDICATES FEW OR NO CLOUDS BELOW 12,000 FEET WITH NO
SIGNIFICANT WEATHER AND/OR OBSTRUCTIONS TO VISIBILITY.


SDZ001>005-009-010-012>017-272100-
NORTHWEST AND NORTH CENTRAL SOUTH DAKOTA

CITY           SKY/WX    TMP DP  RH WIND       PRES   REMARKS
BUFFALO          N/A     28  16  60 W18       29.92F WCI  15
FAITH            N/A     28  16  60 SW17      30.01F WCI  16
MOBRIDGE       SUNNY     25  19  78 S8        30.01F WCI  16
$$

SDZ012>016-024>037-041>051-057-063-072>074-272100-
SOUTHWEST AND SOUTH CENTRAL SOUTH DAKOTA

CITY           SKY/WX    TMP DP  RH WIND       PRES   REMARKS
RAPID CTY ARPT SUNNY     21  13  71 VRB3      30.04F
PIERRE         SUNNY     22  16  78 SW6       30.10F WCI  14
CUSTER         SUNNY     23   9  55 W9        29.94F WCI  13
ELLSWORTH AFB  SUNNY     24  14  64 S5        30.02F WCI  19
PHILIP         SUNNY     25  17  72 SW10      30.10F WCI  15
PINE RIDGE     SUNNY     24  13  62 SW10      30.07F WCI  14
WINNER         FAIR      24  15  68 W9        30.13F WCI  14
$$

SDZ004>011-016>023-039-040-272100-
NORTHEAST SOUTH DAKOTA

CITY           SKY/WX    TMP DP  RH WIND       PRES   REMARKS
ABERDEEN       SUNNY     26  18  71 SW12      30.09F WCI  16
WATERTOWN      MOSUNNY   15   9  76 SW14      30.07F WCI   0
SISSETON         N/A     24  17  74 W14       30.06F WCI  12
$$

SDZ017-020-022-023-036>040-048>070-272100-
SOUTHEAST SOUTH DAKOTA

CITY           SKY/WX    TMP DP  RH WIND       PRES   REMARKS
SIOUX FALLS    SUNNY     15   9  76 W8        30.16F WCI   4
HURON          PTSUNNY   16  10  77 SW6       30.14F WCI   7
MITCHELL       SUNNY     20  13  74 SW8       30.16F WCI  10
YANKTON        SUNNY     19  10  68 NW10      30.20F WCI   8
$$

ABBREVIATIONS USED IN REMARKS
   TC - TEMPERATURE IN CELSIUS
  WCI - WIND CHILL INDEX
   HX - HEAT INDEX
  VSB - VISIBILITY



USA.gov is the U.S. government's official web portal to all federal, state and local government web resources and services.